Lexington Weather

Lexington, Massachusetts, USA

73°F
8/7/2020 11:19am 
  • Lexington Conditions: Clear
  • Temperature: 72.5°F / 22.5°CWarmer 2.5°F than last hour.
  • Dew Point: 63.7°FIncreased 1.3°Fsince last hour.
  • Relative Humidity: 74%Decreased 3.0% since last hour.
  • Wind: Calm, 10-min avg: Calm, gust: 2 mph
  • Barometer: 30.14 in Steady
  • Visibility: 10 miles
  • Rain Today: 0.00 in
  •   

Regional Weather Roundup
for Boston / Norton, MA

        
000
ASUS41 KBOX 021904
RWRBOX

REGIONAL WEATHER ROUNDUP
NATIONAL WEATHER SERVICE BOSTON/NORTON MA
300 PM EDT SUN AUG 02 2020

NOTE:  "FAIR" INDICATES FEW OR NO CLOUDS BELOW 12,000 FEET WITH NO 
SIGNIFICANT WEATHER AND/OR OBSTRUCTIONS TO VISIBILITY.

MAZALL-022000-
EASTERN MASSACHUSETTS
  
CITY           SKY/WX    TMP DP  RH WIND       PRES   REMARKS
BOSTON         PTSUNNY   86  63  45 S17       29.94F                  
BEVERLY        PTSUNNY   84  66  54 SE14      29.94F                  
LAWRENCE       PTSUNNY   86  65  49 SE7       29.95F                  
BEDFORD        PTSUNNY   87  63  44 S15G21    29.92F                  
BLUE HILL      NOT AVBL                                               
NORWOOD        PTSUNNY   86  65  49 S13G21    29.94F                  
MARSHFIELD     MOSUNNY   88  61  40 S13G22    29.96S                  
PLYMOUTH       MOSUNNY   84  67  56 S15G28    29.99F                  
TAUNTON        PTSUNNY   84  68  58 S12G20    29.97F                  
NEW BEDFORD    PTSUNNY   81  72  74 S16G22    29.98F                  
$$

MAZALL-022000-
CAPE COD AND THE ISLANDS
  
CITY           SKY/WX    TMP DP  RH WIND       PRES   REMARKS
FALMOUTH       PTSUNNY   82  70  65 S17G25    30.00F                  
HYANNIS        SUNNY     81  69  67 S13G24    30.00S                  
CHATHAM        SUNNY     79  67  66 S12G21    30.03S                  
PROVINCETOWN   PTSUNNY   82  67  60 S20       29.99F                  
NANTUCKET      SUNNY     77  69  76 SE15      30.01F                  
MARTHAS VNYRD  SUNNY     80  71  74 S13G22    30.00F                  
$$
 
MAZALL-022000-
CENTRAL AND WESTERN MASSACHUSETTS
  
CITY           SKY/WX    TMP DP  RH WIND       PRES   REMARKS
WORCESTER      LGT RAIN  79  66  64 S12G22    29.96F                  
FITCHBURG      LGT RAIN  84  65  52 S9        29.93F                  
ORANGE         CLOUDY    80  68  66 S6        29.94S                  
SPRINGFIELD    RAIN      75  72  88 SW6       29.92R FOG              
WESTFIELD      RAIN      74  73  97 CALM      29.92R FOG              
NORTH ADAMS    CLOUDY    79  69  71 E13G28    29.91S                  
PITTSFIELD     PTSUNNY   77  70  79 SE13G23   29.92F                  
$$
 
RIZALL-022000-
RHODE ISLAND
  
CITY           SKY/WX    TMP DP  RH WIND       PRES   REMARKS
PROVIDENCE     PTSUNNY   81  73  76 S18G25    29.96F                  
NEWPORT        PTSUNNY   80  73  79 S15       29.98F                  
BLOCK ISLAND   CLOUDY    78  73  84 S13       29.97F                  
SMITHFIELD     PTSUNNY   80  73  79 VRB7      29.97S                  
WESTERLY       CLOUDY    77  71  82 SE8       29.97S                  
$$
 
CTZALL-022000-
CONNECTICUT
  
CITY           SKY/WX    TMP DP  RH WIND       PRES   REMARKS
BRADLEY INTL   TSTM      75  73  93 W13G20    29.91R FOG              
HARTFORD       HVY RAIN  77  74  90 S7G20     29.90F VSB 1            
BRIDGEPORT     CLOUDY    80  76  87 S9        29.89F                  
DANBURY        CLOUDY    80  76  87 SE10      29.91F                  
GROTON         CLOUDY    77  73  87 SE14      29.94F                  
NEW HAVEN      CLOUDY    81  78  91 S16G23    29.91S                  
CHESTER          N/A     79  75  89 S12G22    29.94                   
MERIDEN        LGT RAIN  77  74  90 S9        29.90F                  
WILLIMANTIC    LGT RAIN  77  72  84 S8        29.94F                  
OXFORD         CLOUDY    76  76 100 S12       29.94F                  
$$

MEZ002-015-021-024-NHZ003-005-008-011-012-014-VTZ005-008-022000-
NORTHERN NEW ENGLAND
  
CITY           SKY/WX    TMP DP  RH WIND       PRES   REMARKS
PORTLAND ME    PTSUNNY   79  68  69 S13G23    29.97S                  
BANGOR ME      PTSUNNY   81  67  62 S16G23    29.96F                  
CONCORD NH     PTSUNNY   85  61  44 S17G25    29.93F                  
MANCHESTER NH  PTSUNNY   87  61  41 S16G24    29.91F                  
NASHUA NH      PTSUNNY   85  65  51 SE8       29.93F                  
PORTSMOUTH NH  PTSUNNY   83  64  51 SE18      29.93F                  
JAFFREY NH     LGT RAIN  79  64  60 S10       29.97R                  
KEENE NH       HVY RAIN  74  69  85 SE7       29.93S                  
BURLINGTON VT  CLOUDY    83  63  50 S13G23    29.81F                  
MT. WASHINGTON SHOWER    50  50 100 S40G49      N/A  VSB 1/16         
$$

NYZ052-076-022000-
EASTERN NEW YORK
  
CITY           SKY/WX    TMP DP  RH WIND       PRES   REMARKS
ALBANY         PTSUNNY   77  72  84 SE16G22   29.85F                  
NEW YORK CITY  PTSUNNY   89  74  60 S17       29.86F HX  98           
$$
 
ANZALL-022000-
MARINE OBSERVATIONS
  
STATION/POSITION TIME  TEMP    WIND        PRES    VSBY  WAVE
                       AIR SEA DIR/SP/G                  HT/PER
                 (UTC) (F)     (DEG/KT/KT) (MB)    (MI)  (FT/S)
BOSTON BUOY      1850   74 70  140/ 19/ 23 1012.9F         2/ 3
BUZZARDS BAY     1800          150/ 13/ 15 1016.8F
NANTUCKET SOUND  1850      76  180/ 16/ 19 1015.3F         2/ 3
MASS BAY-STELLWA 1804   74     180/ 17/ 19 1012.7S  1 7/8  2/ 3
ISLE OF SHOALS   1800   74     150/ 18/ 19 1014.2F
S OF BLOCK IS    1826      73                N/A           4/ 9
$$

......................KEY.........................
  SKY/WX - SKY CONDITION/PRESENT WEATHER
  TMP    - TEMPERATURE IN FAHRENHEIT
  DWPT   - DEWPOINT IN FAHRENHEIT
  RH     - RELATIVE HUMIDITY IN PERCENT
  WIND   - DIRECTION AND SPEED IN MPH
  PRES   - MEAN SEA LEVEL PRESSURE IN INCHES OF HG
  WCI    - WIND CHILL INDEX
  VSB    - VISIBILITY IN MILES
  HX     - HEAT INDEX
  TC     - TEMPERATURE IN CELSIUS
  VRB    - VARIABLE WIND DIRECTION
  N/A    - NOT AVAILABLE
  
      

Other recent Regional Weather Roundups

Fri Aug 7, 10:04am

Fri Aug 7, 9:04am

Fri Aug 7, 8:04am

Fri Aug 7, 7:04am

Fri Aug 7, 6:04am

Fri Aug 7, 5:04am

Fri Aug 7, 4:04am

Fri Aug 7, 3:04am

Fri Aug 7, 2:04am

Fri Aug 7, 1:05am

Fri Aug 7, 12:04am

Thu Aug 6, 11:04pm

Thu Aug 6, 10:04pm

Thu Aug 6, 9:04pm

Thu Aug 6, 8:04pm

Thu Aug 6, 7:04pm

Thu Aug 6, 6:04pm

Thu Aug 6, 5:04pm

Thu Aug 6, 4:05pm

Thu Aug 6, 3:04pm

Thu Aug 6, 2:05pm

Thu Aug 6, 1:04pm

Thu Aug 6, 12:04pm

Thu Aug 6, 11:04am

Thu Aug 6, 10:04am

Thu Aug 6, 9:04am

Thu Aug 6, 8:04am

Thu Aug 6, 7:04am

Thu Aug 6, 6:04am

Thu Aug 6, 5:04am

Thu Aug 6, 4:04am

Thu Aug 6, 3:04am

Thu Aug 6, 2:05am

Thu Aug 6, 1:04am

Thu Aug 6, 12:04am

Wed Aug 5, 11:04pm

Wed Aug 5, 10:04pm

Wed Aug 5, 9:04pm

Wed Aug 5, 8:05pm

Wed Aug 5, 7:04pm

Wed Aug 5, 6:04pm

Wed Aug 5, 5:04pm

Wed Aug 5, 4:05pm

Wed Aug 5, 3:04pm

Wed Aug 5, 2:04pm

Wed Aug 5, 1:04pm

Wed Aug 5, 12:04pm

Wed Aug 5, 11:04am

Wed Aug 5, 10:04am

Wed Aug 5, 9:04am

Wed Aug 5, 8:04am

Wed Aug 5, 7:04am

Wed Aug 5, 6:04am

Wed Aug 5, 5:04am

Wed Aug 5, 4:04am

Wed Aug 5, 3:04am

Wed Aug 5, 2:05am

Wed Aug 5, 1:04am

Wed Aug 5, 12:05am

Tue Aug 4, 11:05pm

Tue Aug 4, 10:05pm

Tue Aug 4, 9:04pm

Tue Aug 4, 8:04pm

Tue Aug 4, 7:05pm

Tue Aug 4, 6:05pm

Tue Aug 4, 5:05pm

Tue Aug 4, 4:05pm

Tue Aug 4, 3:04pm

Tue Aug 4, 2:05pm

Tue Aug 4, 1:04pm

Tue Aug 4, 12:05pm

Tue Aug 4, 11:04am

Tue Aug 4, 10:04am

Tue Aug 4, 9:04am

Tue Aug 4, 8:04am

Tue Aug 4, 7:04am

Tue Aug 4, 6:04am

Tue Aug 4, 5:04am

Tue Aug 4, 4:04am

Tue Aug 4, 3:04am

Tue Aug 4, 2:04am

Tue Aug 4, 1:04am

Tue Aug 4, 12:04am

Mon Aug 3, 11:04pm

Mon Aug 3, 10:04pm

Mon Aug 3, 9:04pm

Mon Aug 3, 8:05pm

Mon Aug 3, 7:04pm

Mon Aug 3, 6:04pm

Mon Aug 3, 5:04pm

Mon Aug 3, 4:05pm

Mon Aug 3, 3:04pm

Mon Aug 3, 2:04pm

Mon Aug 3, 1:04pm

Mon Aug 3, 12:05pm

Mon Aug 3, 11:04am

Mon Aug 3, 10:04am

Mon Aug 3, 9:05am

Mon Aug 3, 8:04am

Mon Aug 3, 7:04am

Mon Aug 3, 6:04am

Mon Aug 3, 5:04am

Mon Aug 3, 4:04am

Mon Aug 3, 3:04am

Mon Aug 3, 2:04am

Mon Aug 3, 1:04am

Mon Aug 3, 12:05am

Sun Aug 2, 11:04pm

Sun Aug 2, 10:04pm

Sun Aug 2, 9:04pm

Sun Aug 2, 8:04pm

Sun Aug 2, 7:04pm

Sun Aug 2, 6:04pm

Sun Aug 2, 5:04pm

Sun Aug 2, 4:05pm

Sun Aug 2, 2:05pm

Sun Aug 2, 1:04pm

Sun Aug 2, 12:04pm

Sun Aug 2, 11:04am

Sun Aug 2, 10:04am

Sun Aug 2, 9:05am

Sun Aug 2, 8:05am

Sun Aug 2, 7:04am

Sun Aug 2, 6:04am

Sun Aug 2, 5:04am

Sun Aug 2, 4:05am

Sun Aug 2, 3:04am

Sun Aug 2, 2:04am

Sun Aug 2, 1:04am

Sun Aug 2, 12:05am

Sat Aug 1, 11:04pm

Sat Aug 1, 10:04pm

Sat Aug 1, 9:04pm

Sat Aug 1, 8:05pm

Sat Aug 1, 7:04pm

Sat Aug 1, 6:04pm

Sat Aug 1, 5:05pm

Sat Aug 1, 4:05pm

Sat Aug 1, 3:04pm

Sat Aug 1, 2:04pm

Sat Aug 1, 1:04pm

Sat Aug 1, 12:04pm

Sat Aug 1, 11:05am

Sat Aug 1, 10:05am

Sat Aug 1, 9:04am

Sat Aug 1, 8:04am

Sat Aug 1, 7:04am

Sat Aug 1, 6:04am

Sat Aug 1, 5:04am

Sat Aug 1, 4:05am

Sat Aug 1, 3:04am

Sat Aug 1, 2:04am

Sat Aug 1, 1:04am

Sat Aug 1, 12:05am

Fri Jul 31, 11:05pm

Fri Jul 31, 10:04pm

Fri Jul 31, 9:04pm

Fri Jul 31, 8:05pm

Fri Jul 31, 7:05pm

Fri Jul 31, 6:04pm

Fri Jul 31, 5:04pm

Fri Jul 31, 4:05pm

Fri Jul 31, 3:04pm

Fri Jul 31, 2:05pm

Fri Jul 31, 1:04pm

Fri Jul 31, 12:04pm

Fri Jul 31, 11:04am

Meta data:

ID: b3cdbf52-a7ab-4a15-a51a-16428ee25399
Link: https://api.weather.gov/products/b3cdbf52-a7ab-4a15-a51a-16428ee25399